Overview Statistics Trail Chart Weather Telemetry Raw packets
 

This is the latest recevied weather packets stored in our database for station/object OH6GKW. If no packets are shown the sender has not sent any weather packets the latest 10 day(s).

<< 112 113 114 115 116 >>
Time Temp. Humidity Pressure Rain* Wind** Luminosity Snow
1787814213 14.44° C 78% 1026.7 hPa 0 mm - 348 W/m² -
1787813922 13.89° C 80% 1026.7 hPa 0 mm - 398 W/m² -
1787813610 13.89° C 84% 1026.7 hPa 0 mm - 382 W/m² -
1787813323 13.33° C 87% 1026.7 hPa 0 mm - 382 W/m² -
1787813018 13.33° C 90% 1026.7 hPa 0 mm - 371 W/m² -
1787812709 12.78° C 94% 1026.7 hPa 0 mm - 362 W/m² -
1787812435 12.22° C 96% 1026.7 hPa 0 mm - 345 W/m² -
1787812124 11.67° C 98% 1026.8 hPa 0 mm - 322 W/m² -
1787811818 11.67° C 98% 1026.8 hPa 0 mm - 333 W/m² -
1787811510 11.11° C 98% 1026.8 hPa 0 mm - 318 W/m² -
1787811226 11.11° C 98% 1026.9 hPa 0 mm - 308 W/m² -
1787810919 10.56° C 98% 1026.9 hPa 0 mm - 299 W/m² -
1787810630 10° C 98% 1026.9 hPa 0 mm - 292 W/m² -
1787810320 10° C 98% 1026.8 hPa 0 mm - 274 W/m² -
1787810012 9.44° C 98% 1026.8 hPa 0 mm - 76 W/m² -
1787809735 9.44° C 98% 1026.8 hPa 0 mm - 148 W/m² -
1787809413 8.89° C 98% 1026.7 hPa 0 mm - 81 W/m² -
1787809123 8.33° C 98% 1026.7 hPa 0 mm - 55 W/m² -
1787808818 7.78° C 98% 1026.7 hPa 0 mm - 35 W/m² -
1787808508 7.78° C 98% 1026.8 hPa 0 mm - 35 W/m² -
1787808222 7.22° C 98% 1026.8 hPa 0 mm - 35 W/m² -
1787807916 7.22° C 98% 1026.8 hPa 0 mm - 37 W/m² -
1787807637 6.67° C 98% 1026.8 hPa 0 mm - 39 W/m² -
1787807328 6.67° C 98% 1026.8 hPa 0 mm - 39 W/m² -
1787807023 6.11° C 98% 1026.8 hPa 0 mm - 39 W/m² -

* Rain since midnight (hover to see other rain measurements)
** Current wind speed in m/s (hover to see current wind gust speed)